This is the latest recevied weather packets stored in our database for station/object W5ADC. If no packets are shown the sender has not sent any weather packets the latest 10 day(s).
| Time | Temp. | Humidity | Pressure | Rain* | Wind** | Luminosity | Snow |
|---|---|---|---|---|---|---|---|
| 1777772468 | 20° C | 49% | 1015.4 hPa | 0 mm | - | 0 W/m² | - |
| 1777772165 | 20° C | 49% | 1015.2 hPa | 0 mm | - | 0 W/m² | - |
| 1777771863 | 20.56° C | 48% | 1015 hPa | 0 mm | - | 0 W/m² | - |
| 1777771560 | 20.56° C | 46% | 1015.2 hPa | 0 mm | - | 0 W/m² | - |
| 1777771256 | 20.56° C | 46% | 1015 hPa | 0 mm | - | 1 W/m² | - |
| 1777770952 | 21.11° C | 45% | 1015 hPa | 0 mm | - | 2 W/m² | - |
| 1777770650 | 21.11° C | 44% | 1015.1 hPa | 0 mm | - | 3 W/m² | - |
| 1777770346 | 21.67° C | 43% | 1015 hPa | 0 mm | - | 5 W/m² | - |
| 1777770044 | 21.67° C | 43% | 1014.9 hPa | 0 mm | - | 8 W/m² | - |
| 1777769741 | 22.22° C | 42% | 1014.8 hPa | 0 mm | - | 11 W/m² | - |
| 1777769438 | 22.22° C | 42% | 1014.8 hPa | 0 mm | - | 15 W/m² | - |
| 1777769134 | 22.78° C | 41% | 1015 hPa | 0 mm | - | 19 W/m² | - |
| 1777768832 | 22.78° C | 40% | 1014.7 hPa | 0 mm | - | 23 W/m² | - |
| 1777768529 | 22.78° C | 39% | 1014.9 hPa | 0 mm | - | 30 W/m² | - |
| 1777768226 | 23.33° C | 40% | 1014.9 hPa | 0 mm | - | 36 W/m² | - |
| 1777767923 | 23.33° C | 39% | 1014.9 hPa | 0 mm | - | 42 W/m² | - |
| 1777767620 | 23.33° C | 39% | 1014.9 hPa | 0 mm | - | 49 W/m² | - |
| 1777767316 | 23.89° C | 38% | 1014.8 hPa | 0 mm | - | 57 W/m² | - |
| 1777767014 | 23.33° C | 38% | 1014.9 hPa | 0 mm | - | 65 W/m² | - |
| 1777766711 | 23.89° C | 38% | 1014.8 hPa | 0 mm | - | 74 W/m² | - |
| 1777766407 | 24.44° C | 37% | 1014.7 hPa | 0 mm | - | 84 W/m² | - |
| 1777766104 | 24.44° C | 37% | 1014.9 hPa | 0 mm | - | 93 W/m² | - |
| 1777765802 | 23.89° C | 37% | 1014.6 hPa | 0 mm | - | 103 W/m² | - |
| 1777765498 | 23.89° C | 36% | 1014.8 hPa | 0 mm | - | 114 W/m² | - |
| 1777765195 | 23.89° C | 36% | 1014.8 hPa | 0 mm | - | 126 W/m² | - |
* Rain latest hour (hover to see other rain measurements)
** Current wind speed in m/s (hover to see current wind gust speed)